Time,TemperatureF,DewpointF,PressureIn,WindDirection,WindDirectionDegrees,WindSpeedMPH,WindSpeedGustMPH,Humidity,HourlyPrecipIn,Conditions,Clouds,dailyrainin,SoftwareType,DateUTC
2013-04-16 00:02:00,44.0,43.0,-100.00,SW,229,3.0,6.0,96,-99.99,,,-99.99,,2013-04-16 07:02:00,
2013-04-16 00:12:00,44.0,43.0,-100.00,SW,233,5.0,9.0,97,-99.99,,,-99.99,,2013-04-16 07:12:00,
2013-04-16 00:22:00,44.0,43.0,-100.00,SW,234,5.0,15.0,97,-99.99,,,-99.99,,2013-04-16 07:22:00,
2013-04-16 00:32:00,44.0,43.0,-100.00,SW,226,6.0,10.0,98,-99.99,,,-99.99,,2013-04-16 07:32:00,
2013-04-16 00:42:00,44.0,43.0,-100.00,SW,232,6.0,12.0,98,-99.99,,,-99.99,,2013-04-16 07:42:00,
2013-04-16 00:53:00,44.0,43.0,-100.00,WSW,237,7.0,13.0,98,-99.99,,,-99.99,,2013-04-16 07:53:00,
2013-04-16 01:02:00,43.0,42.0,-100.00,WSW,237,7.0,12.0,96,-99.99,,,-99.99,,2013-04-16 08:02:00,
2013-04-16 01:11:00,43.0,42.0,-100.00,WSW,241,7.0,15.0,96,-99.99,,,-99.99,,2013-04-16 08:11:00,
2013-04-16 01:22:00,43.0,42.0,-100.00,WSW,241,7.0,19.0,96,-99.99,,,-99.99,,2013-04-16 08:22:00,
2013-04-16 01:32:00,43.0,42.0,-100.00,WSW,240,8.0,15.0,95,-99.99,,,-99.99,,2013-04-16 08:32:00,
2013-04-16 01:42:00,43.0,42.0,-100.00,WSW,240,8.0,15.0,95,-99.99,,,-99.99,,2013-04-16 08:42:00,
2013-04-16 01:51:00,42.0,41.0,-100.00,WSW,240,8.0,14.0,97,-99.99,,,-99.99,,2013-04-16 08:51:00,
2013-04-16 02:02:00,42.0,40.0,-100.00,WSW,240,8.0,14.0,94,-99.99,,,-99.99,,2013-04-16 09:02:00,
2013-04-16 02:12:00,42.0,41.0,-100.00,WSW,243,9.0,19.0,95,-99.99,,,-99.99,,2013-04-16 09:12:00,
2013-04-16 02:22:00,41.0,40.0,-100.00,WSW,245,9.0,16.0,96,-99.99,,,-99.99,,2013-04-16 09:22:00,
2013-04-16 02:32:00,41.0,39.0,-100.00,WSW,250,9.0,22.0,94,-99.99,,,-99.99,,2013-04-16 09:32:00,
2013-04-16 02:42:00,41.0,39.0,-100.00,WSW,258,7.0,14.0,93,-99.99,,,-99.99,,2013-04-16 09:42:00,
2013-04-16 02:52:00,41.0,40.0,-100.00,West,259,8.0,15.0,97,-99.99,,,-99.99,,2013-04-16 09:52:00,
2013-04-16 03:03:00,41.0,40.0,-100.00,WSW,252,8.0,17.0,97,-99.99,,,-99.99,,2013-04-16 10:03:00,
2013-04-16 03:12:00,41.0,40.0,-100.00,WSW,244,10.0,17.0,97,-99.99,,,-99.99,,2013-04-16 10:12:00,
2013-04-16 03:22:00,41.0,40.0,-100.00,WSW,256,9.0,16.0,96,-99.99,,,-99.99,,2013-04-16 10:22:00,
2013-04-16 03:32:00,40.0,39.0,-100.00,West,259,10.0,20.0,96,-99.99,,,-99.99,,2013-04-16 10:32:00,
2013-04-16 03:42:00,40.0,38.0,-100.00,WSW,249,11.0,20.0,94,-99.99,,,-99.99,,2013-04-16 10:42:00,
2013-04-16 03:52:00,40.0,39.0,-100.00,WSW,257,9.0,19.0,96,-99.99,,,-99.99,,2013-04-16 10:52:00,
2013-04-16 04:02:00,40.0,39.0,-100.00,West,260,10.0,19.0,98,-99.99,,,-99.99,,2013-04-16 11:02:00,
2013-04-16 04:12:00,40.0,39.0,-100.00,West,262,7.0,16.0,98,-99.99,,,-99.99,,2013-04-16 11:12:00,
2013-04-16 04:21:00,40.0,39.0,-100.00,WSW,255,9.0,15.0,98,-99.99,,,-99.99,,2013-04-16 11:21:00,
2013-04-16 04:32:00,40.0,40.0,-100.00,West,261,9.0,17.0,100,-99.99,,,-99.99,,2013-04-16 11:32:00,
2013-04-16 04:42:00,39.0,39.0,-100.00,West,261,8.0,14.0,100,-99.99,,,-99.99,,2013-04-16 11:42:00,
2013-04-16 04:52:00,39.0,39.0,-100.00,West,269,7.0,16.0,100,-99.99,,,-99.99,,2013-04-16 11:52:00,
2013-04-16 05:02:00,39.0,39.0,-100.00,West,269,9.0,17.0,100,-99.99,,,-99.99,,2013-04-16 12:02:00,
2013-04-16 05:12:00,39.0,39.0,-100.00,West,263,7.0,15.0,100,-99.99,,,-99.99,,2013-04-16 12:12:00,
2013-04-16 05:22:00,39.0,39.0,-100.00,West,270,7.0,13.0,100,-99.99,,,-99.99,,2013-04-16 12:22:00,
2013-04-16 05:31:00,39.0,39.0,-100.00,West,274,8.0,13.0,100,-99.99,,,-99.99,,2013-04-16 12:31:00,
2013-04-16 05:42:00,39.0,39.0,-100.00,West,269,7.0,12.0,100,-99.99,,,-99.99,,2013-04-16 12:42:00,
2013-04-16 05:52:00,39.0,39.0,-100.00,West,266,8.0,15.0,100,-99.99,,,-99.99,,2013-04-16 12:52:00,
2013-04-16 06:02:00,39.0,39.0,-100.00,West,267,8.0,14.0,100,-99.99,,,-99.99,,2013-04-16 13:02:00,
2013-04-16 06:12:00,38.0,37.0,-100.00,WSW,251,6.0,12.0,98,-99.99,,,-99.99,,2013-04-16 13:12:00,
2013-04-16 06:22:00,38.0,37.0,-100.00,West,260,6.0,15.0,97,-99.99,,,-99.99,,2013-04-16 13:22:00,
2013-04-16 06:32:00,38.0,37.0,-100.00,West,259,8.0,14.0,97,-99.99,,,-99.99,,2013-04-16 13:32:00,
2013-04-16 06:42:00,38.0,37.0,-100.00,West,260,9.0,16.0,97,-99.99,,,-99.99,,2013-04-16 13:42:00,
2013-04-16 06:52:00,38.0,37.0,-100.00,West,270,9.0,15.0,97,-99.99,,,-99.99,,2013-04-16 13:52:00,
2013-04-16 07:02:00,38.0,37.0,-100.00,West,273,6.0,11.0,98,-99.99,,,-99.99,,2013-04-16 14:02:00,
2013-04-16 07:12:00,38.0,38.0,-100.00,West,261,6.0,11.0,99,-99.99,,,-99.99,,2013-04-16 14:12:00,
2013-04-16 07:22:00,38.0,37.0,-100.00,West,268,6.0,11.0,97,-99.99,,,-99.99,,2013-04-16 14:22:00,
2013-04-16 07:32:00,38.0,37.0,-100.00,WSW,254,8.0,16.0,95,-99.99,,,-99.99,,2013-04-16 14:32:00,
2013-04-16 07:42:00,38.0,36.0,-100.00,West,259,7.0,14.0,93,-99.99,,,-99.99,,2013-04-16 14:42:00,
2013-04-16 07:52:00,39.0,37.0,-100.00,West,259,7.0,12.0,91,-99.99,,,-99.99,,2013-04-16 14:52:00,
2013-04-16 08:02:00,39.0,37.0,-100.00,West,263,6.0,12.0,91,-99.99,,,-99.99,,2013-04-16 15:02:00,
2013-04-16 08:12:00,39.0,37.0,-100.00,WSW,252,6.0,10.0,92,-99.99,,,-99.99,,2013-04-16 15:12:00,
2013-04-16 08:22:00,39.0,37.0,-100.00,West,268,5.0,10.0,92,-99.99,,,-99.99,,2013-04-16 15:22:00,
2013-04-16 08:32:00,39.0,37.0,-100.00,West,267,4.0,12.0,93,-99.99,,,-99.99,,2013-04-16 15:32:00,
2013-04-16 08:43:00,39.0,38.0,-100.00,WSW,248,6.0,10.0,95,-99.99,,,-99.99,,2013-04-16 15:43:00,
2013-04-16 08:52:00,39.0,38.0,-100.00,WSW,256,7.0,13.0,95,-99.99,,,-99.99,,2013-04-16 15:52:00,
2013-04-16 09:03:00,40.0,38.0,-100.00,WSW,257,6.0,14.0,93,-99.99,,,-99.99,,2013-04-16 16:03:00,
2013-04-16 09:12:00,40.0,38.0,-100.00,WSW,246,6.0,13.0,91,-99.99,,,-99.99,,2013-04-16 16:12:00,
2013-04-16 09:22:00,40.0,38.0,-100.00,West,260,5.0,13.0,91,-99.99,,,-99.99,,2013-04-16 16:22:00,
2013-04-16 09:32:00,41.0,38.0,-100.00,WSW,244,7.0,13.0,89,-99.99,,,-99.99,,2013-04-16 16:32:00,
2013-04-16 09:42:00,40.0,37.0,-100.00,WSW,245,8.0,17.0,90,-99.99,,,-99.99,,2013-04-16 16:42:00,
2013-04-16 09:52:00,40.0,37.0,-100.00,WSW,244,7.0,16.0,90,-99.99,,,-99.99,,2013-04-16 16:52:00,
2013-04-16 10:02:00,40.0,36.0,-100.00,WSW,243,8.0,15.0,86,-99.99,,,-99.99,,2013-04-16 17:02:00,
2013-04-16 10:12:00,41.0,36.0,-100.00,WSW,242,8.0,13.0,83,-99.99,,,-99.99,,2013-04-16 17:12:00,
2013-04-16 10:22:00,41.0,35.0,-100.00,WSW,243,7.0,15.0,80,-99.99,,,-99.99,,2013-04-16 17:22:00,
2013-04-16 10:32:00,42.0,36.0,-100.00,West,265,7.0,13.0,78,-99.99,,,-99.99,,2013-04-16 17:32:00,
2013-04-16 10:43:00,42.0,35.0,-100.00,West,267,7.0,11.0,77,-99.99,,,-99.99,,2013-04-16 17:43:00,
2013-04-16 10:52:00,42.0,36.0,-100.00,WSW,253,7.0,14.0,80,-99.99,,,-99.99,,2013-04-16 17:52:00,
2013-04-16 11:01:00,42.0,37.0,-100.00,West,264,8.0,14.0,81,-99.99,,,-99.99,,2013-04-16 18:01:00,
2013-04-16 11:12:00,43.0,36.0,-100.00,WSW,251,7.0,17.0,76,-99.99,,,-99.99,,2013-04-16 18:12:00,
2013-04-16 11:22:00,43.0,35.0,-100.00,West,266,8.0,15.0,73,-99.99,,,-99.99,,2013-04-16 18:22:00,
2013-04-16 11:32:00,44.0,36.0,-100.00,West,271,8.0,16.0,72,-99.99,,,-99.99,,2013-04-16 18:32:00,
2013-04-16 11:42:00,44.0,36.0,-100.00,West,272,8.0,19.0,72,-99.99,,,-99.99,,2013-04-16 18:42:00,
2013-04-16 11:52:00,45.0,35.0,-100.00,West,270,7.0,14.0,69,-99.99,,,-99.99,,2013-04-16 18:52:00,
2013-04-16 12:02:00,45.0,34.0,-100.00,WSW,247,8.0,13.0,65,-99.99,,,-99.99,,2013-04-16 19:02:00,
2013-04-16 12:12:00,45.0,34.0,-100.00,West,268,8.0,16.0,65,-99.99,,,-99.99,,2013-04-16 19:12:00,
2013-04-16 12:22:00,45.0,34.0,-100.00,WSW,253,7.0,14.0,65,-99.99,,,-99.99,,2013-04-16 19:22:00,
2013-04-16 12:32:00,45.0,34.0,-100.00,West,268,10.0,17.0,64,-99.99,,,-99.99,,2013-04-16 19:32:00,
2013-04-16 12:42:00,45.0,35.0,-100.00,West,273,9.0,18.0,67,-99.99,,,-99.99,,2013-04-16 19:42:00,
2013-04-16 12:52:00,46.0,35.0,-100.00,West,260,8.0,15.0,64,-99.99,,,-99.99,,2013-04-16 19:52:00,
2013-04-16 13:02:00,46.0,35.0,-100.00,West,281,8.0,15.0,64,-99.99,,,-99.99,,2013-04-16 20:02:00,
2013-04-16 13:12:00,46.0,35.0,-100.00,West,272,9.0,16.0,64,-99.99,,,-99.99,,2013-04-16 20:12:00,
2013-04-16 13:22:00,47.0,35.0,-100.00,West,277,8.0,15.0,63,-99.99,,,-99.99,,2013-04-16 20:22:00,
2013-04-16 13:32:00,48.0,34.0,-100.00,West,261,7.0,15.0,58,-99.99,,,-99.99,,2013-04-16 20:32:00,
2013-04-16 13:42:00,47.0,35.0,-100.00,WSW,254,8.0,17.0,63,-99.99,,,-99.99,,2013-04-16 20:42:00,
2013-04-16 13:52:00,47.0,35.0,-100.00,WSW,257,8.0,14.0,62,-99.99,,,-99.99,,2013-04-16 20:52:00,
2013-04-16 14:02:00,47.0,35.0,-100.00,WSW,256,7.0,15.0,62,-99.99,,,-99.99,,2013-04-16 21:02:00,
2013-04-16 14:12:00,48.0,33.0,-100.00,WSW,249,9.0,20.0,56,-99.99,,,-99.99,,2013-04-16 21:12:00,
2013-04-16 14:22:00,48.0,34.0,-100.00,West,262,8.0,17.0,57,-99.99,,,-99.99,,2013-04-16 21:22:00,
2013-04-16 14:32:00,49.0,34.0,-100.00,West,267,8.0,14.0,55,-99.99,,,-99.99,,2013-04-16 21:32:00,
2013-04-16 14:42:00,49.0,33.0,-100.00,West,264,7.0,17.0,53,-99.99,,,-99.99,,2013-04-16 21:42:00,
2013-04-16 14:52:00,49.0,32.0,-100.00,West,271,10.0,19.0,51,-99.99,,,-99.99,,2013-04-16 21:52:00,
2013-04-16 15:02:00,49.0,32.0,-100.00,West,271,9.0,18.0,51,-99.99,,,-99.99,,2013-04-16 22:02:00,
2013-04-16 15:12:00,50.0,33.0,-100.00,West,273,10.0,17.0,51,-99.99,,,-99.99,,2013-04-16 22:12:00,
2013-04-16 15:22:00,49.0,31.0,-100.00,West,261,10.0,16.0,50,-99.99,,,-99.99,,2013-04-16 22:22:00,
2013-04-16 15:32:00,49.0,32.0,-100.00,West,264,8.0,14.0,51,-99.99,,,-99.99,,2013-04-16 22:32:00,
2013-04-16 15:42:00,49.0,32.0,-100.00,West,264,10.0,22.0,52,-99.99,,,-99.99,,2013-04-16 22:42:00,
2013-04-16 15:52:00,50.0,33.0,-100.00,West,265,7.0,13.0,51,-99.99,,,-99.99,,2013-04-16 22:52:00,
2013-04-16 16:02:00,49.0,32.0,-100.00,West,261,9.0,19.0,51,-99.99,,,-99.99,,2013-04-16 23:02:00,
2013-04-16 16:12:00,49.0,32.0,-100.00,West,268,8.0,18.0,52,-99.99,,,-99.99,,2013-04-16 23:12:00,
2013-04-16 16:22:00,49.0,33.0,-100.00,West,260,11.0,20.0,53,-99.99,,,-99.99,,2013-04-16 23:22:00,
2013-04-16 16:32:00,49.0,32.0,-100.00,West,267,9.0,15.0,52,-99.99,,,-99.99,,2013-04-16 23:32:00,
2013-04-16 16:42:00,49.0,33.0,-100.00,West,260,11.0,19.0,54,-99.99,,,-99.99,,2013-04-16 23:42:00,
2013-04-16 16:52:00,48.0,33.0,-100.00,WSW,258,10.0,19.0,56,-99.99,,,-99.99,,2013-04-16 23:52:00,
2013-04-16 17:01:00,48.0,33.0,-100.00,West,261,10.0,16.0,56,-99.99,,,-99.99,,2013-04-17 00:01:00,
2013-04-16 17:12:00,48.0,33.0,-100.00,WSW,256,10.0,17.0,56,-99.99,,,-99.99,,2013-04-17 00:12:00,
2013-04-16 17:21:00,47.0,34.0,-100.00,West,266,9.0,17.0,60,-99.99,,,-99.99,,2013-04-17 00:21:00,
2013-04-16 17:32:00,47.0,34.0,-100.00,West,266,9.0,17.0,60,-99.99,,,-99.99,,2013-04-17 00:32:00,
2013-04-16 17:42:00,47.0,34.0,-100.00,West,263,9.0,18.0,60,-99.99,,,-99.99,,2013-04-17 00:42:00,
2013-04-16 17:52:00,47.0,33.0,-100.00,West,261,9.0,15.0,59,-99.99,,,-99.99,,2013-04-17 00:52:00,
2013-04-16 18:02:00,47.0,34.0,-100.00,West,267,8.0,15.0,60,-99.99,,,-99.99,,2013-04-17 01:02:00,
2013-04-16 18:12:00,47.0,34.0,-100.00,West,267,8.0,15.0,60,-99.99,,,-99.99,,2013-04-17 01:12:00,
2013-04-16 18:22:00,46.0,35.0,-100.00,West,263,7.0,13.0,64,-99.99,,,-99.99,,2013-04-17 01:22:00,
2013-04-16 18:32:00,45.0,34.0,-100.00,West,269,8.0,14.0,66,-99.99,,,-99.99,,2013-04-17 01:32:00,
2013-04-16 18:42:00,46.0,36.0,-100.00,West,270,7.0,13.0,68,-99.99,,,-99.99,,2013-04-17 01:42:00,
2013-04-16 18:52:00,45.0,36.0,-100.00,West,275,6.0,13.0,70,-99.99,,,-99.99,,2013-04-17 01:52:00,
2013-04-16 19:02:00,45.0,37.0,-100.00,West,268,7.0,12.0,74,-99.99,,,-99.99,,2013-04-17 02:02:00,
2013-04-16 19:11:00,44.0,37.0,-100.00,West,268,7.0,13.0,77,-99.99,,,-99.99,,2013-04-17 02:11:00,
2013-04-16 19:21:00,44.0,36.0,-100.00,West,259,7.0,12.0,74,-99.99,,,-99.99,,2013-04-17 02:21:00,
2013-04-16 19:32:00,44.0,37.0,-100.00,West,268,6.0,11.0,77,-99.99,,,-99.99,,2013-04-17 02:32:00,
2013-04-16 19:42:00,44.0,38.0,-100.00,West,266,7.0,13.0,80,-99.99,,,-99.99,,2013-04-17 02:42:00,
2013-04-16 19:52:00,44.0,39.0,-100.00,West,264,8.0,13.0,82,-99.99,,,-99.99,,2013-04-17 02:52:00,
2013-04-16 20:02:00,44.0,39.0,-100.00,West,266,8.0,14.0,84,-99.99,,,-99.99,,2013-04-17 03:02:00,
2013-04-16 20:12:00,44.0,40.0,-100.00,West,268,7.0,11.0,85,-99.99,,,-99.99,,2013-04-17 03:12:00,
2013-04-16 20:22:00,44.0,40.0,-100.00,West,271,6.0,12.0,86,-99.99,,,-99.99,,2013-04-17 03:22:00,
2013-04-16 20:32:00,43.0,39.0,-100.00,West,262,8.0,12.0,86,-99.99,,,-99.99,,2013-04-17 03:32:00,
2013-04-16 20:42:00,43.0,40.0,-100.00,WSW,255,7.0,11.0,88,-99.99,,,-99.99,,2013-04-17 03:42:00,
2013-04-16 20:53:00,43.0,40.0,-100.00,WSW,254,8.0,12.0,89,-99.99,,,-99.99,,2013-04-17 03:53:00,
2013-04-16 21:02:00,43.0,40.0,-100.00,WSW,254,7.0,11.0,90,-99.99,,,-99.99,,2013-04-17 04:02:00,
2013-04-16 21:12:00,43.0,41.0,-100.00,WSW,256,6.0,11.0,91,-99.99,,,-99.99,,2013-04-17 04:12:00,
2013-04-16 21:22:00,43.0,41.0,-100.00,West,266,6.0,10.0,92,-99.99,,,-99.99,,2013-04-17 04:22:00,
2013-04-16 21:32:00,43.0,41.0,-100.00,West,270,5.0,11.0,92,-99.99,,,-99.99,,2013-04-17 04:32:00,
2013-04-16 21:42:00,43.0,41.0,-100.00,West,278,5.0,10.0,94,-99.99,,,-99.99,,2013-04-17 04:42:00,
2013-04-16 21:52:00,43.0,41.0,-100.00,West,281,5.0,9.0,94,-99.99,,,-99.99,,2013-04-17 04:52:00,
2013-04-16 22:02:00,43.0,41.0,-100.00,West,277,6.0,11.0,94,-99.99,,,-99.99,,2013-04-17 05:02:00,
2013-04-16 22:12:00,43.0,41.0,-100.00,West,276,7.0,13.0,94,-99.99,,,-99.99,,2013-04-17 05:12:00,
2013-04-16 22:22:00,42.0,40.0,-100.00,West,273,7.0,13.0,91,-99.99,,,-99.99,,2013-04-17 05:22:00,
2013-04-16 22:32:00,42.0,40.0,-100.00,WNW,289,3.0,7.0,91,-99.99,,,-99.99,,2013-04-17 05:32:00,
2013-04-16 22:42:00,41.0,39.0,-100.00,WNW,302,3.0,9.0,92,-99.99,,,-99.99,,2013-04-17 05:42:00,
2013-04-16 22:52:00,41.0,39.0,-100.00,WNW,301,2.0,7.0,93,-99.99,,,-99.99,,2013-04-17 05:52:00,
2013-04-16 23:02:00,41.0,39.0,-100.00,NW,321,1.0,4.0,94,-99.99,,,-99.99,,2013-04-17 06:02:00,
2013-04-16 23:12:00,40.0,39.0,-100.00,WNW,292,0.0,2.0,96,-99.99,,,-99.99,,2013-04-17 06:12:00,
2013-04-16 23:22:00,40.0,39.0,-100.00,SSE,150,1.0,1.0,97,-99.99,,,-99.99,,2013-04-17 06:22:00,
2013-04-16 23:32:00,39.0,38.0,-100.00,ESE,114,1.0,2.0,98,-99.99,,,-99.99,,2013-04-17 06:32:00,
2013-04-16 23:42:00,38.0,38.0,-100.00,ENE,74,1.0,2.0,99,-99.99,,,-99.99,,2013-04-17 06:42:00,
2013-04-16 23:52:00,37.0,37.0,-100.00,East,79,1.0,3.0,100,-99.99,,,-99.99,,2013-04-17 06:52:00,